This is the latest recevied weather packets stored in our database for station/object XE2KK-10. If no packets are shown the sender has not sent any weather packets the latest 10 day(s).
| Time | Temp. | Humidity | Pressure | Rain* | Wind** | Luminosity | Snow |
|---|---|---|---|---|---|---|---|
| 1777738753 | 13.89° C | 86% | 1023.2 hPa | 0 mm | - | 163 W/m² | - |
| 1777738453 | 13.89° C | 86% | 1023.1 hPa | 0 mm | - | 120 W/m² | - |
| 1777738153 | 13.89° C | 86% | 1023.2 hPa | 0 mm | - | 111 W/m² | - |
| 1777737852 | 13.89° C | 86% | 1023.1 hPa | 0 mm | - | 99 W/m² | - |
| 1777737253 | 13.89° C | 86% | 1023.1 hPa | 0 mm | - | 96 W/m² | - |
| 1777736953 | 13.89° C | 86% | 1023.2 hPa | 0 mm | - | 80 W/m² | - |
| 1777736653 | 13.89° C | 86% | 1022.9 hPa | 0 mm | - | 67 W/m² | - |
| 1777736353 | 13.89° C | 86% | 1023 hPa | 0 mm | - | 64 W/m² | - |
| 1777736052 | 13.89° C | 86% | 1022.9 hPa | 0 mm | - | 64 W/m² | - |
| 1777735752 | 13.89° C | 86% | 1023.1 hPa | 0 mm | - | 64 W/m² | - |
| 1777735453 | 13.89° C | 86% | 1022.8 hPa | 0 mm | - | 65 W/m² | - |
| 1777735153 | 13.89° C | 86% | 1023 hPa | 0 mm | - | 65 W/m² | - |
| 1777734853 | 13.89° C | 86% | 1022.9 hPa | 0 mm | - | 62 W/m² | - |
| 1777734553 | 13.89° C | 86% | 1022.7 hPa | 0 mm | - | 58 W/m² | - |
| 1777734252 | 13.89° C | 86% | 1022.7 hPa | 0 mm | - | 55 W/m² | - |
| 1777733952 | 13.33° C | 86% | 1022.4 hPa | 0 mm | - | 49 W/m² | - |
| 1777733653 | 13.33° C | 86% | 1022.7 hPa | 0 mm | - | 40 W/m² | - |
| 1777733352 | 13.33° C | 86% | 1022.8 hPa | 0 mm | - | 42 W/m² | - |
| 1777733052 | 13.33° C | 86% | 1022.5 hPa | 0 mm | - | 37 W/m² | - |
| 1777732752 | 13.33° C | 86% | 1022.5 hPa | 0 mm | - | 35 W/m² | - |
| 1777732452 | 13.33° C | 86% | 1022.2 hPa | 0 mm | - | 34 W/m² | - |
| 1777732152 | 13.33° C | 86% | 1022.2 hPa | 0 mm | - | 33 W/m² | - |
| 1777731853 | 13.33° C | 86% | 1022.1 hPa | 0 mm | - | 36 W/m² | - |
| 1777731553 | 13.33° C | 86% | 1022.3 hPa | 0 mm | - | 39 W/m² | - |
| 1777731252 | 13.33° C | 86% | 1022.1 hPa | 0 mm | - | 46 W/m² | - |
* Rain latest hour (hover to see other rain measurements)
** Current wind speed in m/s (hover to see current wind gust speed)